Home > Weather > Kapfenberg > Past weeks

Flag for Austria Past Weather in Kapfenberg, Styria, Austria — Yesterday and Last 2 Weeks

Now
54 °F

Passing clouds.


Feels Like: 54 °F
Forecast: 52 / 73 °F
Wind: 2 mph from North

Location: Zeltweg

Current Time: Jun 28, 2016 at 12:13:45 AM

Latest Report: Jun 27, 2016 at 10:50 PM


Visibility: 19 mi

Pressure: 30.15 "Hg (28.38 "Hg at 504m altitude)

Humidity: 82%

Dew Point: 48 °F

Location of KapfenbergLocation

Past Weather in Kapfenberg — Graph

°F

Kapfenberg Temperature Yesterday

Maximum temperature yesterday: 66 °F (at 4:20 PM)
Minimum temperature yesterday: 54 °F (at 10:50 PM)
Average temperature yesterday: 61 °F

High & Low Weather Summary for the Past Weeks

 TemperatureHumidityPressure
High86 °F (Jun 24, 2:50 PM)100% (Jun 20, 5:50 AM)30.36 "Hg (Jun 20, 5:50 AM)
Low48 °F (Jun 21, 4:50 AM)31% (Jun 17, 12:50 PM)29.56 "Hg (Jun 15, 4:50 AM)
Average65 °F68%29.99 "Hg
* Reported Jun 12 10:50 PM — Jun 27 10:50 PM, Kapfenberg, Weather by CustomWeather, © 2016

Note: Actual official high and low records may vary slightly from our data, if they occured in-between our weather recording intervals... More about our weather records

Advertising

Kapfenberg Weather History for the Previous 24 Hours

Scroll right to see more
 ConditionsComfort  
Time TempWeatherWind HumidityBarometerVisibility
10:50 PM
Mon, Jun 27
54 °FPassing clouds.2 mph82%30.15 "Hg19 mi
9:50 PM55 °FScattered clouds.2 mph82%30.12 "Hg19 mi
8:50 PM59 °FScattered clouds.3 mph72%30.12 "Hg19 mi
7:50 PM63 °FPartly sunny.2 mph64%30.12 "Hg19 mi
7:20 PM63 °FPartly sunny.7 mph64%30.09 "Hg19 mi
6:50 PM64 °FPartly sunny.8 mph56%30.09 "Hg19 mi
6:20 PM66 °FBroken clouds.6 mph49%30.09 "Hg19 mi
5:50 PM66 °FBroken clouds.5 mph49%30.09 "Hg19 mi
5:20 PM64 °FPartly sunny.3 mph56%30.09 "Hg19 mi
4:50 PM66 °FPartly sunny.6 mph52%30.09 "Hg19 mi
4:20 PM66 °FBroken clouds.6 mph52%30.09 "Hg19 mi
3:50 PM64 °FBroken clouds.3 mph52%30.09 "Hg19 mi
3:20 PM64 °FBroken clouds.3 mph56%30.09 "Hg19 mi
2:50 PM64 °FBroken clouds.2 mph56%30.12 "Hg19 mi
2:20 PM63 °FBroken clouds.2 mph68%30.12 "Hg19 mi
1:50 PM61 °FBroken clouds.8 mph72%30.12 "Hg19 mi
1:20 PM61 °FBroken clouds.10 mph72%30.12 "Hg19 mi
12:50 PM59 °FBroken clouds.9 mph77%30.12 "Hg19 mi
12:20 PM59 °FScattered showers. Broken clouds.9 mph77%30.15 "Hg16 mi
11:50 AM59 °FScattered showers. Broken clouds.9 mph77%30.12 "Hg9 mi
11:20 AM59 °FSprinkles. Broken clouds.7 mph77%30.12 "Hg9 mi
10:50 AM61 °FBroken clouds.2 mph72%30.12 "Hg9 mi
10:20 AM61 °FScattered showers. Broken clouds.2 mph77%30.12 "Hg9 mi
9:50 AM59 °FBroken clouds.5 mph94%30.12 "Hg9 mi
9:20 AM59 °FPartly sunny.7 mph88%30.09 "Hg9 mi
8:50 AM59 °FSprinkles. Partly sunny.6 mph88%30.09 "Hg9 mi
8:20 AM59 °FSprinkles. Partly sunny.3 mph94%30.09 "Hg6 mi
7:50 AM59 °FPartly sunny.2 mph94%30.09 "Hg9 mi
7:20 AM59 °FBroken clouds.2 mph94%30.07 "Hg9 mi
6:50 AM59 °FSprinkles. Broken clouds.2 mph94%30.07 "Hg9 mi
5:50 AM59 °FThunderstorms. Partly cloudy.6 mph94%30.07 "Hg4 mi
4:50 AM59 °FRain showers. Partly cloudy.5 mph94%30.04 "Hg2 mi
Weather by CustomWeather, © 2016

See weather overviewHow to use our weather pages